Preview of NWS' New Version of Forecast
This preview is not operational and should not be used for support decisions.

Regional Weather Roundup (RWR)

Issued by National Weather Service (NWS)

                            
000
ASUS43 KDMX 181201
RWRIA 

WEATHER ROUNDUP FOR IOWA
NATIONAL WEATHER SERVICE DES MOINES IA
700 AM CDT WED SEP 18 2019

NOTE: "FAIR" INDICATES FEW OR NO CLOUDS BELOW 12,000 FEET WITH NO
SIGNIFICANT WEATHER AND/OR OBSTRUCTIONS TO VISIBILITY.

* - THESE STATIONS ARE NOT NWS STATIONS...THUS NOT UNDER NWS
QUALITY CONTROL.  THEY ALSO DO NOT REPORT WEATHER SUCH 
AS PRECIPITATION OR FOG.  

IAZ001>003-012>014-020>022-031>034-043>046-181300-
   NORTHWEST IOWA
  
CITY           SKY/WX    TMP DP  RH WIND       PRES   REMARKS
CARROLL *      CLEAR     72  66  83 S12       29.90R                  
CHEROKEE *     MOCLDY    71  68  90 S10       29.87R THUNDER          
DENISON *      CLOUDY    73  70  88 S8G17     29.91R                  
LE MARS *      CLEAR     72  70  94 S9G16     29.84R                  
SHELDON *        N/A     70  70 100 S10       29.83S                  
SIOUX CITY     CLEAR     73  67  81 S14       29.85R                  
6HR MIN TEMP:  73; 6HR MAX TEMP:  78; 6HR PCP:  0.11;                

SPENCER        LGT RAIN  72  67  84 S14G22    29.88F                  
6HR MIN TEMP:  70; 6HR MAX TEMP:  76; 6HR PCP:  0.58;                

STORM LAKE *   PTCLDY    70  70 100 SW21G32   29.89R FOG              
$$
 
IAZ055>058-069>071-079>083-090>094-181300-
   SOUTHWEST IOWA
  
CITY           SKY/WX    TMP DP  RH WIND       PRES   REMARKS
ATLANTIC *     CLEAR     72  68  88 S12       29.91S                  
AUDUBON *        N/A     72  66  83 S7        29.93S                  
CLARINDA *     CLEAR     66  66 100 S5        29.95S                  
COUNCIL BLFS * CLEAR     73  72  94 S15       29.89R                  
CRESTON *      CLEAR     70  70 100 S8        29.96R                  
HARLAN  *      CLEAR     72  68  88 S10       29.91R                  
LAMONI         CLEAR     71  70  96 S10       29.97S                  
6HR MIN TEMP:  71; 6HR MAX TEMP:  74;                                

RED OAK *      FOG       70  68  94 S6        29.92S VSB 1            
SHENANDOAH *   CLEAR     72  68  88 S8        29.91S                  
$$
 
IAZ047>049-059>061-072>074-084-181300-
   CENTRAL IOWA
  
CITY           SKY/WX    TMP DP  RH WIND       PRES   REMARKS
AMES           CLEAR     69  69 100 MISG      29.94S FOG              
6HR MIN TEMP:  69; 6HR MAX TEMP:  74;                                

ANKENY *       CLEAR     72  70  94 S6        29.96S FOG              
BOONE *        CLEAR     72  72 100 S12G17    29.93S                  
CHARITON *     CLEAR     72  72 100 S10       29.97R FOG              
DES MOINES     PTCLDY    72  69  90 S9        29.95R                  
6HR MIN TEMP:  72; 6HR MAX TEMP:  75;                                

GRINNELL*      CLEAR     68  66  93 SE12      30.00S                  
KNOXVILLE *    CLEAR     70  70 100 SE8       29.97R                  
MARSHALLTOWN   CLEAR     68  68 100 SE12      29.97R                  
6HR MIN TEMP:  68; 6HR MAX TEMP:  70;                                

NEWTON *       CLEAR     68  68 100 SE9       29.97R                  
PELLA *        CLEAR     69  66  89 SE8       29.99R                  
PERRY *        FAIR      71  68  92 SE7       29.93S FOG              
$$
 
IAZ004>006-015-016-023>025-035-036-181300-
   NORTH CENTRAL IOWA
  
CITY           SKY/WX    TMP DP  RH WIND       PRES   REMARKS
ALGONA *       CLOUDY    72  72 100 W3        29.93R FOG              
CLARION *      CLEAR     72  72 100 S13G22    29.93R                  
ESTHERVILLE    TSTM      68  67  96 S15G26    29.91F FOG              
6HR MIN TEMP:  68; 6HR MAX TEMP:  73; 6HR PCP:  1.80;                

FORT DODGE *   CLEAR     73  69  87 S10       29.92R                  
MASON CITY     CLEAR     68  66  93 S10       29.96R                  
6HR MIN TEMP:  68; 6HR MAX TEMP:  70;                                

FOREST CITY *  FAIR      70  70 100 S7        29.95R                  
IOWA FALLS *     N/A     69  65  84 SE12G18   29.97R                  
$$

IAZ007>011-017>019-026>030-037>042-050>054-066-181300-
   NORTHEAST IOWA
  
CITY           SKY/WX    TMP DP  RH WIND       PRES   REMARKS
CEDAR RAPIDS   FAIR      66  65  96 SE7       30.01R                  
6HR MIN TEMP:  66; 6HR MAX TEMP:  70;                                

CHARLES CITY * FAIR      68  66  94 S9        29.98R                  
CLINTON *      FAIR      63  62  97 SE9       30.06S FOG              
DECORAH *      FAIR      64  64 100 SE8       30.00R FOG              
DUBUQUE        FAIR      63  62  97 S9        30.05S FOG              
6HR MIN TEMP:  63; 6HR MAX TEMP:  68;                                

MONTICELLO *   FAIR      64  64 100 SE3       30.04R FOG              
OELWEIN *      CLEAR     64  64 100 SE10      30.02R FOG              
WATERLOO       FAIR      69  65  86 SE14      29.98R                  
6HR MIN TEMP:  69; 6HR MAX TEMP:  73;                                

$$
 
IAZ064-065-067-068-078-181300-
   EAST CENTRAL IOWA
  
CITY           SKY/WX    TMP DP  RH WIND       PRES   REMARKS
DAVENPORT      FAIR      65  61  87 SE8       30.06S                  
6HR MIN TEMP:  64; 6HR MAX TEMP:  69;                                

IOWA CITY      FAIR      67  64  90 SE6       30.04R                  
6HR MIN TEMP:  67; 6HR MAX TEMP:  70;                                

MUSCATINE *    FAIR      66  64  94 SE6       30.04R                  
QUAD CITIES    FAIR      64  61  90 E3        30.05R FOG              
6HR MIN TEMP:  63; 6HR MAX TEMP:  67;                                

$$
 
IAZ062-063-075>077-085>089-095>099-181300-
   SOUTHEAST IOWA
  
CITY           SKY/WX    TMP DP  RH WIND       PRES   REMARKS
BURLINGTON     CLEAR     68  63  84 SE8       30.04S                  
6HR MIN TEMP:  68; 6HR MAX TEMP:  72;                                

FAIRFIELD *    CLEAR     68  66  94 SE9       30.01S                  
FORT MADISON * CLEAR     68  66  94 S9        30.04S                  
KEOKUK *       CLEAR     68  66  94 SE8G16    30.03S                  
OSKALOOSA *    FAIR      67  65  93 S7        30.00R                  
OTTUMWA        CLEAR     70  66  87 S9        29.99S                  
6HR MIN TEMP:  70; 6HR MAX TEMP:  73;                                

WASHINGTON *     N/A    N/A N/A N/A MISG        N/A                   
$$

ABBREVIATIONS USED IN REMARKS
   TC - TEMPERATURES IN CELSIUS
  WCI - WIND CHILL INDEX
   HX - HEAT INDEX
  VSB - VISIBILITY  
$$